Weather in Boyarskaya

Russia / Republic of Karelia     65°57′50″N   33°21′00″E
temp.,
°C
wind,
m/s
gust,
m/s
humid.,
%
clouds,
%
prec.,
mm/h
press.,
hPa
HPBL,
m
3 august, tue
tue300:00+13n2598100 0.1 1002122
03:00+12nne3699100 0.1 1001208
06:00+12ne3898100 0.9 999287
09:00+12ne51298100 4.8 996386
12:00+13ne61398100 15.2 992760
15:00+14ene51198100 24.4 989739
18:00+13nne3599100 2.9 986321
21:00+13n2399100 6.0 985183
4 august, wed
wed400:00+13nnw3499100 0.5 984283
03:00+11w4898100 6.3 986545
06:00+9wsw51097100 11.5 987669
09:00+8w71296100 18.9 990905
12:00+8wnw81494100 1.5 994973
15:00+7wnw81393100 1.9 9991225
18:00+8wnw81691100 0.2 10031280
21:00+9wnw61587100 0.3 10071307
5 august, thu
thu500:00+9wnw51282100 0.1 1009804
03:00+8w31088100 0.1 1012313
06:00+9w3881100 0.0 1014248
09:00+12wsw3772100 0.0 1015345
12:00+16wsw3556100 0.0 1016895
15:00+18wsw4645100 0.0 10161522
18:00+17wsw2552100 0.0 10171192
21:00+13s2370100 0.0 101848
6 august, fri
fri600:00+10ssw237888 0.0 101953
03:00+10ssw22809 0.0 101931
06:00+11ssw23766 0.0 102080
09:00+17ssw23555 0.0 1020401
12:00+20sw22405 0.0 10201827
15:00+20sw234495 0.0 10191008
18:00+19sw135553 0.0 1020183
21:00+15wsw1167100 0.0 102011
7 august, sat
sat700:00+12sw226671 0.0 102112
03:00+11sw227027 0.0 102111
06:00+12wsw117012 0.0 102131
09:00+18ssw12515 0.0 1021379
12:00+21ssw12375 0.0 10211868
15:00+22s113528 0.0 10202250
18:00+20se345279 0.0 1020571
21:00+15sse25670 0.0 102188